STARLINK-1363, 45568

Orbit data source: Space-Track

STARLINK-1363, 45568 is a payload satellite owned by SpaceX/Seattle (US) in LEO that was launched on Wed, 22 Apr 2020 UTC via an FALCON 9 launch vehicle from the Air Force Eastern Test Range (AFETR). Payload-class satellites include a variety of spacecraft equipped with specific instruments for various scientific and technological missions. These include communications satellites like Starlink; space stations such as the ISS; scientific satellites like the Hubble; Earth observation satellites from companies like Planet Labs, Umbra, and HawkEye 360; GPS; miniature CubeSats for education and research; and military/defense satellites.

Loading next visibility...
Identifier
45568, 2020-025AP
Orbit
LEO
Last TLE update
14 hours ago
Origin
Manufacturer
SpaceX/Seattle
Mission
Operational Commercial Communications
Bus & Motor
STARLINK, Unknown motor
Mass
260 kg wet, ~248 kg dry
Launch date (UTC)
2020-04-22 (5 years ago)
Launch vehicle
FALCON 9
Launch site
Air Force Eastern Test Range (AFETR)
Object type
Payload
Rocket body
Debris
Shape & HBR
Box + 1 Pan, 8.86 m
Radar Cross Section
13.562 m², Large (>1 m²)

Expand to show TLE details & history

TLE from 14 hours ago
0 STARLINK-1363
1 45568U 20025AP  25181.85396258 -.00000376  00000-0 -63561-5 0  9994
2 45568  53.0543 137.3967 0001533  87.4304 272.6861 15.06399062287408
Epoch: 2025-06-30T20:29Z
TLE epoch observation values (Epoch: 2025-06-30T20:29:42.366Z)
Latitude
-0°
Longitude
-89.18763°
Altitude
548.044 km
Speed
7.589 km/s
True Right ascension
09h 09m 35s
True Declination
0° 00' 00"
Sunlit
Object was in daylight at epoch
Visualization orbit readout
Latitude
-39.94587°
Longitude
127.02164°
Altitude
561.214 km
Speed
7.58 km/s
Apparent Right ascension
04h 01m 38s
Apparent Declination
-75° 08' 48"
Sunlit
Object is in full shadow
Visualization observer readout
Local Sidereal Time
21:54:16
Azimuth
160.808° S
Elevation
-38.795°
Doppler factor
1
Orbital elements
Apogee altitude
548.547 km
Perigee altitude
546.423 km
Semi-major axis
6,925.622 km
Eccentricity
0.00015
Inclination
53.0543°
RAAN
137.3967°
Arg. of periapsis
87.4304°
True anomaly
Unknown
Mean anomaly
272.6861°
Eccentric anomaly
Unknown
Mean motion
3.76578 °/min
Orbital period
95.6 mins
BSTAR
-0.0000063561
Loading maneuver chart data...
Loading SW <> Apogee altitude chart data...
Loading historical data...
Loading historical data...
Loading historical data...
Loading historical data...
Loading historical data...
Loading historical data...
Loading historical data...

STARLINK-1363 Visibility forecast

Observer location: undefined°, undefined°

Span
Click to sort rows by Start time (UTC) header in descending order
Start Az.
Max El. time (UTC)
Max El. Az.
Max El.
End time (UTC)
End Az.
6 mins2025-07-01 23:45:51.373Z233.288° WSW2025-07-01 23:47:51.373Z254.124° W43.995°2025-07-01 23:51:51.373Z48.894° ENE
4 mins2025-07-02 01:26:51.373Z313.087° NW2025-07-02 01:27:51.373Z332.308° NNW19.018°2025-07-02 01:30:51.373Z24.103° NE
5 mins2025-07-02 04:47:51.373Z345.608° N2025-07-02 04:49:51.373Z24.141° NE20.271°2025-07-02 04:52:51.373Z72.889° E
6 mins2025-07-02 06:26:51.373Z308.503° NW2025-07-02 06:29:51.373Z165.69° S44.751°2025-07-02 06:32:51.373Z133.032° SE
|